Location: Newark
(22.3060°N, 114.2134°E)
Time: 07:03:59
(UTC+00:00)

Vanguard 1 Rocket - Pass Details

Date: 06 August 2021
Orbit: 650 x 4226 km, 34.3° (Epoch: 23 September)

Event Time Altitude Azimuth Distance (km) Brightness Sun altitude
Exits shadow 18:58:22 - 172° (S) 6,801 11.5 -36.7°
Reaches altitude 10° 19:03:21 10° 159° (SSE) 6,699 11.6 -35.9°
Maximum altitude 19:13:21 14° 133° (SE) 6,852 11.8 -34.1°
Drops below altitude 10° 19:24:08 10° 108° (ESE) 7,429 12.4 -32.2°
Sets 19:35:03 0° 88° (E) 8,297 13.1 -30.2°
